owner,sensor,date,latitude,longitude,relative_humidity,qcFlag 
DISL,ioos:station:DISL:KATA:1,2019-08-01T00:57:00Z,30.2583,-88.2131,59.75,11111222 
DISL,ioos:station:DISL:KATA:1,2019-08-01T01:57:00Z,30.2583,-88.2131,56.9,11111222 
DISL,ioos:station:DISL:KATA:1,2019-08-01T02:57:00Z,30.2583,-88.2131,60.36,11111222 
DISL,ioos:station:DISL:KATA:1,2019-08-01T03:57:00Z,30.2583,-88.2131,59.0,11111222 
DISL,ioos:station:DISL:KATA:1,2019-08-01T04:57:00Z,30.2583,-88.2131,57.88,11111222 
DISL,ioos:station:DISL:KATA:1,2019-08-01T05:57:00Z,30.2583,-88.2131,60.19,11111222 
DISL,ioos:station:DISL:KATA:1,2019-08-01T06:57:00Z,30.2583,-88.2131,62.12,11111222 
DISL,ioos:station:DISL:KATA:1,2019-08-01T07:57:00Z,30.2583,-88.2131,61.44,11111222 
DISL,ioos:station:DISL:KATA:1,2019-08-01T08:57:00Z,30.2583,-88.2131,64.29,11111222 
DISL,ioos:station:DISL:KATA:1,2019-08-01T09:57:00Z,30.2583,-88.2131,64.5,11111222 
DISL,ioos:station:DISL:KATA:1,2019-08-01T10:57:00Z,30.2583,-88.2131,69.24,11111222 
DISL,ioos:station:DISL:KATA:1,2019-08-01T11:57:00Z,30.2583,-88.2131,74.57,11111222 
DISL,ioos:station:DISL:KATA:1,2019-08-01T12:57:00Z,30.2583,-88.2131,76.87,11111222 
DISL,ioos:station:DISL:KATA:1,2019-08-01T13:57:00Z,30.2583,-88.2131,76.81,11111222 
DISL,ioos:station:DISL:KATA:1,2019-08-01T14:57:00Z,30.2583,-88.2131,68.93,11111222 
DISL,ioos:station:DISL:KATA:1,2019-08-01T15:57:00Z,30.2583,-88.2131,64.51,11111222 
DISL,ioos:station:DISL:KATA:1,2019-08-01T16:57:00Z,30.2583,-88.2131,62.14,11111222 
DISL,ioos:station:DISL:KATA:1,2019-08-01T17:57:00Z,30.2583,-88.2131,57.97,11111222 
DISL,ioos:station:DISL:KATA:1,2019-08-01T18:57:00Z,30.2583,-88.2131,56.68,11111222 
DISL,ioos:station:DISL:KATA:1,2019-08-01T19:57:00Z,30.2583,-88.2131,63.19,11111222 
DISL,ioos:station:DISL:KATA:1,2019-08-01T20:57:00Z,30.2583,-88.2131,60.03,11111222 
DISL,ioos:station:DISL:KATA:1,2019-08-01T21:57:00Z,30.2583,-88.2131,65.46,11111222 
DISL,ioos:station:DISL:KATA:1,2019-08-01T22:57:00Z,30.2583,-88.2131,67.74,11111222 
DISL,ioos:station:DISL:KATA:1,2019-08-01T23:57:00Z,30.2583,-88.2131,63.95,11111222 
DISL,ioos:station:DISL:KATA:1,2019-08-02T00:57:00Z,30.2583,-88.2131,66.43,11111222 
DISL,ioos:station:DISL:KATA:1,2019-08-02T01:57:00Z,30.2583,-88.2131,61.31,11111222 
DISL,ioos:station:DISL:KATA:1,2019-08-02T02:57:00Z,30.2583,-88.2131,70.23,11111222 
DISL,ioos:station:DISL:KATA:1,2019-08-02T03:57:00Z,30.2583,-88.2131,70.19,11111222 
DISL,ioos:station:DISL:KATA:1,2019-08-02T04:57:00Z,30.2583,-88.2131,74.7,11111222 
DISL,ioos:station:DISL:KATA:1,2019-08-02T05:57:00Z,30.2583,-88.2131,70.77,11111222 
DISL,ioos:station:DISL:KATA:1,2019-08-02T06:57:00Z,30.2583,-88.2131,69.35,11111222 
DISL,ioos:station:DISL:KATA:1,2019-08-02T07:57:00Z,30.2583,-88.2131,66.12,11111222 
DISL,ioos:station:DISL:KATA:1,2019-08-02T08:57:00Z,30.2583,-88.2131,67.79,11111222 
DISL,ioos:station:DISL:KATA:1,2019-08-02T09:57:00Z,30.2583,-88.2131,67.48,11111222 
DISL,ioos:station:DISL:KATA:1,2019-08-02T10:57:00Z,30.2583,-88.2131,77.38,11111222 
DISL,ioos:station:DISL:KATA:1,2019-08-02T11:57:00Z,30.2583,-88.2131,76.33,11111222 
DISL,ioos:station:DISL:KATA:1,2019-08-02T12:57:00Z,30.2583,-88.2131,78.26,11111222 
DISL,ioos:station:DISL:KATA:1,2019-08-02T13:57:00Z,30.2583,-88.2131,60.5,11111222 
DISL,ioos:station:DISL:KATA:1,2019-08-02T14:57:00Z,30.2583,-88.2131,60.19,11111222 
DISL,ioos:station:DISL:KATA:1,2019-08-02T15:57:00Z,30.2583,-88.2131,64.72,11111222 
DISL,ioos:station:DISL:KATA:1,2019-08-02T16:57:00Z,30.2583,-88.2131,66.71,11111222 
DISL,ioos:station:DISL:KATA:1,2019-08-02T17:57:00Z,30.2583,-88.2131,66.14,11111222 
DISL,ioos:station:DISL:KATA:1,2019-08-02T18:57:00Z,30.2583,-88.2131,69.46,11111222 
DISL,ioos:station:DISL:KATA:1,2019-08-02T19:57:00Z,30.2583,-88.2131,69.75,11111222 
DISL,ioos:station:DISL:KATA:1,2019-08-02T20:57:00Z,30.2583,-88.2131,70.77,11111222 
DISL,ioos:station:DISL:KATA:1,2019-08-02T21:57:00Z,30.2583,-88.2131,63.89,11111222 
DISL,ioos:station:DISL:KATA:1,2019-08-02T22:57:00Z,30.2583,-88.2131,67.31,11111222 
DISL,ioos:station:DISL:KATA:1,2019-08-02T23:57:00Z,30.2583,-88.2131,73.62,11111222 
DISL,ioos:station:DISL:KATA:1,2019-08-03T00:57:00Z,30.2583,-88.2131,70.06,11111222 
DISL,ioos:station:DISL:KATA:1,2019-08-03T01:57:00Z,30.2583,-88.2131,76.72,11111222 
DISL,ioos:station:DISL:KATA:1,2019-08-03T02:57:00Z,30.2583,-88.2131,78.66,11111222 
DISL,ioos:station:DISL:KATA:1,2019-08-03T03:57:00Z,30.2583,-88.2131,79.27,11111222 
DISL,ioos:station:DISL:KATA:1,2019-08-03T04:57:00Z,30.2583,-88.2131,74.55,11111222 
DISL,ioos:station:DISL:KATA:1,2019-08-03T05:57:00Z,30.2583,-88.2131,68.23,11111222 
DISL,ioos:station:DISL:KATA:1,2019-08-03T06:57:00Z,30.2583,-88.2131,69.97,11111222 
DISL,ioos:station:DISL:KATA:1,2019-08-03T07:57:00Z,30.2583,-88.2131,69.08,11111222 
DISL,ioos:station:DISL:KATA:1,2019-08-03T08:57:00Z,30.2583,-88.2131,72.2,11111222 
DISL,ioos:station:DISL:KATA:1,2019-08-03T09:57:00Z,30.2583,-88.2131,78.79,11111222 
DISL,ioos:station:DISL:KATA:1,2019-08-03T10:57:00Z,30.2583,-88.2131,80.9,11111222 
DISL,ioos:station:DISL:KATA:1,2019-08-03T11:57:00Z,30.2583,-88.2131,85.2,11111222 
DISL,ioos:station:DISL:KATA:1,2019-08-03T12:57:00Z,30.2583,-88.2131,80.3,11111222 
DISL,ioos:station:DISL:KATA:1,2019-08-03T13:57:00Z,30.2583,-88.2131,72.74,11111222 
DISL,ioos:station:DISL:KATA:1,2019-08-03T14:57:00Z,30.2583,-88.2131,71.99,11111222 
DISL,ioos:station:DISL:KATA:1,2019-08-03T15:57:00Z,30.2583,-88.2131,67.54,11111222 
DISL,ioos:station:DISL:KATA:1,2019-08-03T16:57:00Z,30.2583,-88.2131,69.49,11111222 
DISL,ioos:station:DISL:KATA:1,2019-08-03T17:57:00Z,30.2583,-88.2131,66.51,11111222 
DISL,ioos:station:DISL:KATA:1,2019-08-03T18:57:00Z,30.2583,-88.2131,67.19,11111222 
DISL,ioos:station:DISL:KATA:1,2019-08-03T19:57:00Z,30.2583,-88.2131,64.82,11111222 
DISL,ioos:station:DISL:KATA:1,2019-08-03T20:57:00Z,30.2583,-88.2131,64.15,11111222 
DISL,ioos:station:DISL:KATA:1,2019-08-03T21:57:00Z,30.2583,-88.2131,63.02,11111222 
DISL,ioos:station:DISL:KATA:1,2019-08-03T22:57:00Z,30.2583,-88.2131,63.46,11111222 
DISL,ioos:station:DISL:KATA:1,2019-08-03T23:57:00Z,30.2583,-88.2131,64.52,11111222 
DISL,ioos:station:DISL:KATA:1,2019-08-04T00:57:00Z,30.2583,-88.2131,66.63,11111222 
DISL,ioos:station:DISL:KATA:1,2019-08-04T01:57:00Z,30.2583,-88.2131,64.7,11111222 
DISL,ioos:station:DISL:KATA:1,2019-08-04T02:57:00Z,30.2583,-88.2131,67.11,11111222 
DISL,ioos:station:DISL:KATA:1,2019-08-04T03:57:00Z,30.2583,-88.2131,63.07,11111222 
DISL,ioos:station:DISL:KATA:1,2019-08-04T04:57:00Z,30.2583,-88.2131,64.36,11111222 
DISL,ioos:station:DISL:KATA:1,2019-08-04T05:57:00Z,30.2583,-88.2131,63.31,11111222 
DISL,ioos:station:DISL:KATA:1,2019-08-04T06:57:00Z,30.2583,-88.2131,60.12,11111222 
DISL,ioos:station:DISL:KATA:1,2019-08-04T07:57:00Z,30.2583,-88.2131,64.53,11111222 
DISL,ioos:station:DISL:KATA:1,2019-08-04T08:57:00Z,30.2583,-88.2131,64.29,11111222 
DISL,ioos:station:DISL:KATA:1,2019-08-04T09:57:00Z,30.2583,-88.2131,69.89,11111222 
DISL,ioos:station:DISL:KATA:1,2019-08-04T10:57:00Z,30.2583,-88.2131,67.96,11111222 
DISL,ioos:station:DISL:KATA:1,2019-08-04T11:57:00Z,30.2583,-88.2131,68.5,11111222 
DISL,ioos:station:DISL:KATA:1,2019-08-04T12:57:00Z,30.2583,-88.2131,74.87,11111222 
DISL,ioos:station:DISL:KATA:1,2019-08-04T13:57:00Z,30.2583,-88.2131,69.35,11111222 
DISL,ioos:station:DISL:KATA:1,2019-08-04T14:57:00Z,30.2583,-88.2131,71.23,11111222 
DISL,ioos:station:DISL:KATA:1,2019-08-04T15:57:00Z,30.2583,-88.2131,70.31,11111222 
DISL,ioos:station:DISL:KATA:1,2019-08-04T16:57:00Z,30.2583,-88.2131,62.68,11111222 
DISL,ioos:station:DISL:KATA:1,2019-08-04T17:57:00Z,30.2583,-88.2131,62.27,11111222 
DISL,ioos:station:DISL:KATA:1,2019-08-04T18:57:00Z,30.2583,-88.2131,65.97,11111222 
DISL,ioos:station:DISL:KATA:1,2019-08-04T19:57:00Z,30.2583,-88.2131,65.63,11111222 
DISL,ioos:station:DISL:KATA:1,2019-08-04T20:57:00Z,30.2583,-88.2131,65.9,11111222 
DISL,ioos:station:DISL:KATA:1,2019-08-04T21:56:00Z,30.2583,-88.2131,69.25,11111222 
DISL,ioos:station:DISL:KATA:1,2019-08-04T22:56:00Z,30.2583,-88.2131,66.41,11111222 
DISL,ioos:station:DISL:KATA:1,2019-08-04T23:56:00Z,30.2583,-88.2131,65.37,11111222 
DISL,ioos:station:DISL:KATA:1,2019-08-05T00:56:00Z,30.2583,-88.2131,65.31,11111222 
DISL,ioos:station:DISL:KATA:1,2019-08-05T01:56:00Z,30.2583,-88.2131,67.92,11111222 
DISL,ioos:station:DISL:KATA:1,2019-08-05T02:56:00Z,30.2583,-88.2131,66.56,11111222 
DISL,ioos:station:DISL:KATA:1,2019-08-05T03:56:00Z,30.2583,-88.2131,66.5,11111222 
DISL,ioos:station:DISL:KATA:1,2019-08-05T04:56:00Z,30.2583,-88.2131,69.62,11111222 
DISL,ioos:station:DISL:KATA:1,2019-08-05T05:56:00Z,30.2583,-88.2131,77.21,11111222 
DISL,ioos:station:DISL:KATA:1,2019-08-05T06:56:00Z,30.2583,-88.2131,76.96,11111222 
DISL,ioos:station:DISL:KATA:1,2019-08-05T07:56:00Z,30.2583,-88.2131,73.52,11111222 
DISL,ioos:station:DISL:KATA:1,2019-08-05T08:56:00Z,30.2583,-88.2131,70.8,11111222 
DISL,ioos:station:DISL:KATA:1,2019-08-05T09:56:00Z,30.2583,-88.2131,67.68,11111222 
DISL,ioos:station:DISL:KATA:1,2019-08-05T10:56:00Z,30.2583,-88.2131,82.3,11111222 
DISL,ioos:station:DISL:KATA:1,2019-08-05T11:56:00Z,30.2583,-88.2131,84.4,11111222 
DISL,ioos:station:DISL:KATA:1,2019-08-05T12:56:00Z,30.2583,-88.2131,82.5,11111222 
DISL,ioos:station:DISL:KATA:1,2019-08-05T13:56:00Z,30.2583,-88.2131,82.6,11111222 
DISL,ioos:station:DISL:KATA:1,2019-08-05T14:56:00Z,30.2583,-88.2131,76.87,11111222 
DISL,ioos:station:DISL:KATA:1,2019-08-05T15:56:00Z,30.2583,-88.2131,73.75,11111222 
DISL,ioos:station:DISL:KATA:1,2019-08-05T16:56:00Z,30.2583,-88.2131,72.16,11111222 
DISL,ioos:station:DISL:KATA:1,2019-08-05T17:56:00Z,30.2583,-88.2131,71.45,11111222 
DISL,ioos:station:DISL:KATA:1,2019-08-05T18:56:00Z,30.2583,-88.2131,69.21,11111222 
DISL,ioos:station:DISL:KATA:1,2019-08-05T19:56:00Z,30.2583,-88.2131,72.77,11111222 
DISL,ioos:station:DISL:KATA:1,2019-08-05T20:56:00Z,30.2583,-88.2131,70.13,11111222 
DISL,ioos:station:DISL:KATA:1,2019-08-05T21:56:00Z,30.2583,-88.2131,70.84,11111222 
DISL,ioos:station:DISL:KATA:1,2019-08-05T22:56:00Z,30.2583,-88.2131,71.28,11111222 
DISL,ioos:station:DISL:KATA:1,2019-08-05T23:56:00Z,30.2583,-88.2131,71.85,11111222 
DISL,ioos:station:DISL:KATA:1,2019-08-06T00:56:00Z,30.2583,-88.2131,71.58,11111222 
DISL,ioos:station:DISL:KATA:1,2019-08-06T01:56:00Z,30.2583,-88.2131,74.67,11111222 
DISL,ioos:station:DISL:KATA:1,2019-08-06T02:56:00Z,30.2583,-88.2131,67.79,11111222 
DISL,ioos:station:DISL:KATA:1,2019-08-06T03:56:00Z,30.2583,-88.2131,71.28,11111222 
DISL,ioos:station:DISL:KATA:1,2019-08-06T04:56:00Z,30.2583,-88.2131,75.96,11111222 
DISL,ioos:station:DISL:KATA:1,2019-08-06T05:56:00Z,30.2583,-88.2131,72.33,11111222 
DISL,ioos:station:DISL:KATA:1,2019-08-06T06:56:00Z,30.2583,-88.2131,74.09,11111222 
DISL,ioos:station:DISL:KATA:1,2019-08-06T07:56:00Z,30.2583,-88.2131,77.72,11111222 
DISL,ioos:station:DISL:KATA:1,2019-08-06T08:56:00Z,30.2583,-88.2131,75.35,11111222 
DISL,ioos:station:DISL:KATA:1,2019-08-06T09:56:00Z,30.2583,-88.2131,76.94,11111222 
DISL,ioos:station:DISL:KATA:1,2019-08-06T10:56:00Z,30.2583,-88.2131,76.84,11111222 
DISL,ioos:station:DISL:KATA:1,2019-08-06T11:56:00Z,30.2583,-88.2131,73.55,11111222 
DISL,ioos:station:DISL:KATA:1,2019-08-06T12:56:00Z,30.2583,-88.2131,82.1,11111222 
DISL,ioos:station:DISL:KATA:1,2019-08-06T13:56:00Z,30.2583,-88.2131,73.35,11111222 
DISL,ioos:station:DISL:KATA:1,2019-08-06T14:56:00Z,30.2583,-88.2131,77.35,11111222 
DISL,ioos:station:DISL:KATA:1,2019-08-06T15:56:00Z,30.2583,-88.2131,76.05,11111222 
DISL,ioos:station:DISL:KATA:1,2019-08-06T16:56:00Z,30.2583,-88.2131,73.93,11111222 
DISL,ioos:station:DISL:KATA:1,2019-08-06T17:56:00Z,30.2583,-88.2131,74.34,11111222 
DISL,ioos:station:DISL:KATA:1,2019-08-06T18:56:00Z,30.2583,-88.2131,73.42,11111222 
DISL,ioos:station:DISL:KATA:1,2019-08-06T19:56:00Z,30.2583,-88.2131,71.4,11111222 
DISL,ioos:station:DISL:KATA:1,2019-08-06T20:56:00Z,30.2583,-88.2131,70.04,11111222 
DISL,ioos:station:DISL:KATA:1,2019-08-06T21:56:00Z,30.2583,-88.2131,70.78,11111222 
DISL,ioos:station:DISL:KATA:1,2019-08-06T22:56:00Z,30.2583,-88.2131,72.76,11111222 
DISL,ioos:station:DISL:KATA:1,2019-08-06T23:56:00Z,30.2583,-88.2131,65.04,11111222 
DISL,ioos:station:DISL:KATA:1,2019-08-07T00:56:00Z,30.2583,-88.2131,67.79,11111222 
DISL,ioos:station:DISL:KATA:1,2019-08-07T01:56:00Z,30.2583,-88.2131,56.76,11111222 
DISL,ioos:station:DISL:KATA:1,2019-08-07T02:56:00Z,30.2583,-88.2131,53.65,11111222 
DISL,ioos:station:DISL:KATA:1,2019-08-07T03:56:00Z,30.2583,-88.2131,64.46,11111222 
DISL,ioos:station:DISL:KATA:1,2019-08-07T04:56:00Z,30.2583,-88.2131,71.85,11111222 
DISL,ioos:station:DISL:KATA:1,2019-08-07T05:56:00Z,30.2583,-88.2131,73.58,11111222 
DISL,ioos:station:DISL:KATA:1,2019-08-07T06:56:00Z,30.2583,-88.2131,71.69,11111222 
DISL,ioos:station:DISL:KATA:1,2019-08-07T07:56:00Z,30.2583,-88.2131,73.96,11111222 
DISL,ioos:station:DISL:KATA:1,2019-08-07T08:56:00Z,30.2583,-88.2131,77.96,11111222 
DISL,ioos:station:DISL:KATA:1,2019-08-07T09:56:00Z,30.2583,-88.2131,82.6,11111222 
DISL,ioos:station:DISL:KATA:1,2019-08-07T10:56:00Z,30.2583,-88.2131,74.57,11111222 
DISL,ioos:station:DISL:KATA:1,2019-08-07T11:56:00Z,30.2583,-88.2131,75.01,11111222 
DISL,ioos:station:DISL:KATA:1,2019-08-07T12:56:00Z,30.2583,-88.2131,74.81,11111222 
DISL,ioos:station:DISL:KATA:1,2019-08-07T13:56:00Z,30.2583,-88.2131,77.34,11111222 
DISL,ioos:station:DISL:KATA:1,2019-08-07T14:56:00Z,30.2583,-88.2131,77.94,11111222 
DISL,ioos:station:DISL:KATA:1,2019-08-07T15:56:00Z,30.2583,-88.2131,71.7,11111222 
DISL,ioos:station:DISL:KATA:1,2019-08-07T16:56:00Z,30.2583,-88.2131,71.15,11111222 
DISL,ioos:station:DISL:KATA:1,2019-08-07T17:56:00Z,30.2583,-88.2131,72.17,11111222 
DISL,ioos:station:DISL:KATA:1,2019-08-07T18:56:00Z,30.2583,-88.2131,67.66,11111222 
DISL,ioos:station:DISL:KATA:1,2019-08-07T19:56:00Z,30.2583,-88.2131,72.17,11111222 
DISL,ioos:station:DISL:KATA:1,2019-08-07T20:56:00Z,30.2583,-88.2131,69.24,11111222 
DISL,ioos:station:DISL:KATA:1,2019-08-07T21:56:00Z,30.2583,-88.2131,74.73,11111222 
DISL,ioos:station:DISL:KATA:1,2019-08-07T22:56:00Z,30.2583,-88.2131,69.88,11111222 
DISL,ioos:station:DISL:KATA:1,2019-08-07T23:56:00Z,30.2583,-88.2131,69.81,11111222 
DISL,ioos:station:DISL:KATA:1,2019-08-08T00:56:00Z,30.2583,-88.2131,75.03,11111222 
DISL,ioos:station:DISL:KATA:1,2019-08-08T01:56:00Z,30.2583,-88.2131,75.44,11111222 
DISL,ioos:station:DISL:KATA:1,2019-08-08T02:56:00Z,30.2583,-88.2131,75.68,11111222 
DISL,ioos:station:DISL:KATA:1,2019-08-08T03:56:00Z,30.2583,-88.2131,73.03,11111222 
DISL,ioos:station:DISL:KATA:1,2019-08-08T04:56:00Z,30.2583,-88.2131,76.29,11111222 
DISL,ioos:station:DISL:KATA:1,2019-08-08T05:56:00Z,30.2583,-88.2131,69.98,11111222 
DISL,ioos:station:DISL:KATA:1,2019-08-08T06:56:00Z,30.2583,-88.2131,67.82,11111222 
DISL,ioos:station:DISL:KATA:1,2019-08-08T07:56:00Z,30.2583,-88.2131,72.23,11111222 
DISL,ioos:station:DISL:KATA:1,2019-08-08T08:56:00Z,30.2583,-88.2131,76.53,11111222 
DISL,ioos:station:DISL:KATA:1,2019-08-08T09:56:00Z,30.2583,-88.2131,77.59,11111222 
DISL,ioos:station:DISL:KATA:1,2019-08-08T10:56:00Z,30.2583,-88.2131,78.67,11111222 
DISL,ioos:station:DISL:KATA:1,2019-08-08T11:56:00Z,30.2583,-88.2131,74.03,11111222 
DISL,ioos:station:DISL:KATA:1,2019-08-08T12:56:00Z,30.2583,-88.2131,81.7,11111222 
DISL,ioos:station:DISL:KATA:1,2019-08-08T13:56:00Z,30.2583,-88.2131,81.0,11111222 
DISL,ioos:station:DISL:KATA:1,2019-08-08T14:56:00Z,30.2583,-88.2131,77.45,11111222 
DISL,ioos:station:DISL:KATA:1,2019-08-08T15:56:00Z,30.2583,-88.2131,78.66,11111222 
DISL,ioos:station:DISL:KATA:1,2019-08-08T16:56:00Z,30.2583,-88.2131,68.44,11111222 
DISL,ioos:station:DISL:KATA:1,2019-08-08T17:56:00Z,30.2583,-88.2131,63.73,11111222 
DISL,ioos:station:DISL:KATA:1,2019-08-08T18:56:00Z,30.2583,-88.2131,71.46,11111222 
DISL,ioos:station:DISL:KATA:1,2019-08-08T19:56:00Z,30.2583,-88.2131,72.85,11111222 
DISL,ioos:station:DISL:KATA:1,2019-08-08T20:56:00Z,30.2583,-88.2131,69.69,11111222 
DISL,ioos:station:DISL:KATA:1,2019-08-08T21:56:00Z,30.2583,-88.2131,68.95,11111222 
DISL,ioos:station:DISL:KATA:1,2019-08-08T22:56:00Z,30.2583,-88.2131,74.71,11111222 
DISL,ioos:station:DISL:KATA:1,2019-08-08T23:56:00Z,30.2583,-88.2131,70.92,11111222 
DISL,ioos:station:DISL:KATA:1,2019-08-09T00:56:00Z,30.2583,-88.2131,71.47,11111222 
DISL,ioos:station:DISL:KATA:1,2019-08-09T01:56:00Z,30.2583,-88.2131,69.17,11111222 
DISL,ioos:station:DISL:KATA:1,2019-08-09T02:56:00Z,30.2583,-88.2131,71.85,11111222 
DISL,ioos:station:DISL:KATA:1,2019-08-09T03:56:00Z,30.2583,-88.2131,79.04,11111222 
DISL,ioos:station:DISL:KATA:1,2019-08-09T04:56:00Z,30.2583,-88.2131,79.11,11111222 
DISL,ioos:station:DISL:KATA:1,2019-08-09T05:56:00Z,30.2583,-88.2131,81.5,11111222 
DISL,ioos:station:DISL:KATA:1,2019-08-09T06:56:00Z,30.2583,-88.2131,75.28,11111222 
DISL,ioos:station:DISL:KATA:1,2019-08-09T07:56:00Z,30.2583,-88.2131,79.31,11111222 
DISL,ioos:station:DISL:KATA:1,2019-08-09T08:56:00Z,30.2583,-88.2131,76.4,11111222 
DISL,ioos:station:DISL:KATA:1,2019-08-09T09:56:00Z,30.2583,-88.2131,75.52,11111222 
DISL,ioos:station:DISL:KATA:1,2019-08-09T10:56:00Z,30.2583,-88.2131,78.67,11111222 
DISL,ioos:station:DISL:KATA:1,2019-08-09T11:56:00Z,30.2583,-88.2131,81.4,11111222 
DISL,ioos:station:DISL:KATA:1,2019-08-09T12:56:00Z,30.2583,-88.2131,79.48,11111222 
DISL,ioos:station:DISL:KATA:1,2019-08-09T13:56:00Z,30.2583,-88.2131,82.6,11111222 
DISL,ioos:station:DISL:KATA:1,2019-08-09T14:56:00Z,30.2583,-88.2131,77.8,11111222 
DISL,ioos:station:DISL:KATA:1,2019-08-09T15:56:00Z,30.2583,-88.2131,72.81,11111222 
DISL,ioos:station:DISL:KATA:1,2019-08-09T16:56:00Z,30.2583,-88.2131,75.22,11111222 
DISL,ioos:station:DISL:KATA:1,2019-08-09T17:56:00Z,30.2583,-88.2131,73.66,11111222 
DISL,ioos:station:DISL:KATA:1,2019-08-09T18:56:00Z,30.2583,-88.2131,74.64,11111222 
DISL,ioos:station:DISL:KATA:1,2019-08-09T19:56:00Z,30.2583,-88.2131,73.63,11111222 
DISL,ioos:station:DISL:KATA:1,2019-08-09T20:56:00Z,30.2583,-88.2131,74.78,11111222 
DISL,ioos:station:DISL:KATA:1,2019-08-09T21:56:00Z,30.2583,-88.2131,73.41,11111222 
DISL,ioos:station:DISL:KATA:1,2019-08-09T22:56:00Z,30.2583,-88.2131,70.63,11111222 
DISL,ioos:station:DISL:KATA:1,2019-08-09T23:56:00Z,30.2583,-88.2131,73.79,11111222 
DISL,ioos:station:DISL:KATA:1,2019-08-10T00:56:00Z,30.2583,-88.2131,75.82,11111222 
DISL,ioos:station:DISL:KATA:1,2019-08-10T01:56:00Z,30.2583,-88.2131,69.31,11111222 
DISL,ioos:station:DISL:KATA:1,2019-08-10T02:56:00Z,30.2583,-88.2131,76.6,11111222 
DISL,ioos:station:DISL:KATA:1,2019-08-10T03:56:00Z,30.2583,-88.2131,75.72,11111222 
DISL,ioos:station:DISL:KATA:1,2019-08-10T04:56:00Z,30.2583,-88.2131,72.57,11111222 
DISL,ioos:station:DISL:KATA:1,2019-08-10T05:56:00Z,30.2583,-88.2131,70.5,11111222 
DISL,ioos:station:DISL:KATA:1,2019-08-10T06:56:00Z,30.2583,-88.2131,72.33,11111222 
DISL,ioos:station:DISL:KATA:1,2019-08-10T07:56:00Z,30.2583,-88.2131,76.23,11111222 
DISL,ioos:station:DISL:KATA:1,2019-08-10T08:56:00Z,30.2583,-88.2131,77.82,11111222 
DISL,ioos:station:DISL:KATA:1,2019-08-10T09:56:00Z,30.2583,-88.2131,79.45,11111222 
DISL,ioos:station:DISL:KATA:1,2019-08-10T10:56:00Z,30.2583,-88.2131,75.89,11111222 
DISL,ioos:station:DISL:KATA:1,2019-08-10T11:56:00Z,30.2583,-88.2131,76.81,11111222 
DISL,ioos:station:DISL:KATA:1,2019-08-10T12:56:00Z,30.2583,-88.2131,76.74,11111222 
DISL,ioos:station:DISL:KATA:1,2019-08-10T13:56:00Z,30.2583,-88.2131,77.65,11111222 
DISL,ioos:station:DISL:KATA:1,2019-08-10T14:56:00Z,30.2583,-88.2131,77.17,11111222 
DISL,ioos:station:DISL:KATA:1,2019-08-10T15:56:00Z,30.2583,-88.2131,75.19,11111222 
DISL,ioos:station:DISL:KATA:1,2019-08-10T16:56:00Z,30.2583,-88.2131,70.71,11111222 
DISL,ioos:station:DISL:KATA:1,2019-08-10T17:56:00Z,30.2583,-88.2131,66.88,11111222 
DISL,ioos:station:DISL:KATA:1,2019-08-10T18:56:00Z,30.2583,-88.2131,71.02,11111222 
DISL,ioos:station:DISL:KATA:1,2019-08-10T19:56:00Z,30.2583,-88.2131,72.22,11111222 
DISL,ioos:station:DISL:KATA:1,2019-08-10T20:56:00Z,30.2583,-88.2131,72.13,11111222 
DISL,ioos:station:DISL:KATA:1,2019-08-10T21:56:00Z,30.2583,-88.2131,72.06,11111222 
DISL,ioos:station:DISL:KATA:1,2019-08-10T22:56:00Z,30.2583,-88.2131,75.89,11111222 
DISL,ioos:station:DISL:KATA:1,2019-08-10T23:56:00Z,30.2583,-88.2131,77.08,11111222 
DISL,ioos:station:DISL:KATA:1,2019-08-11T00:56:00Z,30.2583,-88.2131,73.31,11111222 
DISL,ioos:station:DISL:KATA:1,2019-08-11T01:56:00Z,30.2583,-88.2131,74.67,11111222 
DISL,ioos:station:DISL:KATA:1,2019-08-11T02:56:00Z,30.2583,-88.2131,71.82,11111222 
DISL,ioos:station:DISL:KATA:1,2019-08-11T03:56:00Z,30.2583,-88.2131,70.19,11111222 
DISL,ioos:station:DISL:KATA:1,2019-08-11T04:56:00Z,30.2583,-88.2131,71.07,11111222 
DISL,ioos:station:DISL:KATA:1,2019-08-11T05:56:00Z,30.2583,-88.2131,73.52,11111222 
DISL,ioos:station:DISL:KATA:1,2019-08-11T06:56:00Z,30.2583,-88.2131,73.58,11111222 
DISL,ioos:station:DISL:KATA:1,2019-08-11T07:57:00Z,30.2583,-88.2131,72.6,11111222 
DISL,ioos:station:DISL:KATA:1,2019-08-11T08:57:00Z,30.2583,-88.2131,67.55,11111222 
DISL,ioos:station:DISL:KATA:1,2019-08-11T09:57:00Z,30.2583,-88.2131,72.09,11111222 
DISL,ioos:station:DISL:KATA:1,2019-08-11T10:57:00Z,30.2583,-88.2131,71.75,11111222 
DISL,ioos:station:DISL:KATA:1,2019-08-11T11:57:00Z,30.2583,-88.2131,78.4,11111222 
DISL,ioos:station:DISL:KATA:1,2019-08-11T12:57:00Z,30.2583,-88.2131,81.7,11111222 
DISL,ioos:station:DISL:KATA:1,2019-08-11T13:57:00Z,30.2583,-88.2131,78.33,11111222 
DISL,ioos:station:DISL:KATA:1,2019-08-11T14:57:00Z,30.2583,-88.2131,78.51,11111222 
DISL,ioos:station:DISL:KATA:1,2019-08-11T15:57:00Z,30.2583,-88.2131,78.2,11111222 
DISL,ioos:station:DISL:KATA:1,2019-08-11T16:57:00Z,30.2583,-88.2131,77.97,11111222 
DISL,ioos:station:DISL:KATA:1,2019-08-11T17:57:00Z,30.2583,-88.2131,74.13,11111222 
DISL,ioos:station:DISL:KATA:1,2019-08-11T18:57:00Z,30.2583,-88.2131,81.3,11111222 
DISL,ioos:station:DISL:KATA:1,2019-08-11T19:57:00Z,30.2583,-88.2131,88.1,11111222 
DISL,ioos:station:DISL:KATA:1,2019-08-11T20:57:00Z,30.2583,-88.2131,80.7,11111222 
DISL,ioos:station:DISL:KATA:1,2019-08-11T21:57:00Z,30.2583,-88.2131,76.36,11111222 
DISL,ioos:station:DISL:KATA:1,2019-08-11T22:57:00Z,30.2583,-88.2131,79.38,11111222 
DISL,ioos:station:DISL:KATA:1,2019-08-11T23:57:00Z,30.2583,-88.2131,84.6,11111222 
DISL,ioos:station:DISL:KATA:1,2019-08-12T00:57:00Z,30.2583,-88.2131,83.8,11111222 
DISL,ioos:station:DISL:KATA:1,2019-08-12T01:57:00Z,30.2583,-88.2131,81.8,11111222 
DISL,ioos:station:DISL:KATA:1,2019-08-12T02:57:00Z,30.2583,-88.2131,79.86,11111222 
DISL,ioos:station:DISL:KATA:1,2019-08-12T03:57:00Z,30.2583,-88.2131,77.04,11111222 
DISL,ioos:station:DISL:KATA:1,2019-08-12T04:57:00Z,30.2583,-88.2131,74.5,11111222 
DISL,ioos:station:DISL:KATA:1,2019-08-12T05:57:00Z,30.2583,-88.2131,74.09,11111222 
DISL,ioos:station:DISL:KATA:1,2019-08-12T06:57:00Z,30.2583,-88.2131,75.45,11111222 
DISL,ioos:station:DISL:KATA:1,2019-08-12T07:57:00Z,30.2583,-88.2131,74.53,11111222 
DISL,ioos:station:DISL:KATA:1,2019-08-12T09:57:00Z,30.2583,-88.2131,73.48,11111222 
DISL,ioos:station:DISL:KATA:1,2019-08-12T10:57:00Z,30.2583,-88.2131,75.08,11111222 
DISL,ioos:station:DISL:KATA:1,2019-08-12T11:57:00Z,30.2583,-88.2131,75.99,11111222 
DISL,ioos:station:DISL:KATA:1,2019-08-12T12:57:00Z,30.2583,-88.2131,76.47,11111222 
DISL,ioos:station:DISL:KATA:1,2019-08-12T13:57:00Z,30.2583,-88.2131,75.42,11111222 
DISL,ioos:station:DISL:KATA:1,2019-08-12T14:57:00Z,30.2583,-88.2131,76.12,11111222 
DISL,ioos:station:DISL:KATA:1,2019-08-12T15:57:00Z,30.2583,-88.2131,75.5,11111222 
DISL,ioos:station:DISL:KATA:1,2019-08-12T16:57:00Z,30.2583,-88.2131,73.15,11111222 
DISL,ioos:station:DISL:KATA:1,2019-08-12T17:57:00Z,30.2583,-88.2131,71.86,11111222 
DISL,ioos:station:DISL:KATA:1,2019-08-12T18:57:00Z,30.2583,-88.2131,70.88,11111222 
DISL,ioos:station:DISL:KATA:1,2019-08-12T19:57:00Z,30.2583,-88.2131,68.61,11111222 
DISL,ioos:station:DISL:KATA:1,2019-08-12T20:57:00Z,30.2583,-88.2131,70.81,11111222 
DISL,ioos:station:DISL:KATA:1,2019-08-12T21:57:00Z,30.2583,-88.2131,70.24,11111222 